Location: *
(49.4616°S, 176.5460°W)
Time: 05:33:50
(UTC+00:00)

Daily predictions for brighter satellites

Satellite Brightness Start Highest point End
(mag) Time Altitude Azimuth Time Altitude Azimuth Time Altitude Azimuth
SJ-6F 4.5 04:31:49 10° SSE 04:35:58 66° E 04:40:03 10° N
[s.n.52708] 2.7 04:37:01 10° WNW 04:39:56 77° NNE 04:42:53 10° ESE
[s.n.52707] 2.7 04:37:07 10° WNW 04:40:03 77° NNE 04:42:59 10° ESE
SL-16 R/B 4.4 04:37:13 10° WSW 04:40:08 14° SSW 04:43:04 10° S
[s.n.52703] 2.7 04:37:14 10° WNW 04:40:10 77° NNE 04:43:07 10° ESE
[s.n.52705] 2.7 04:37:21 10° WNW 04:40:16 77° NNE 04:43:13 10° ESE
[s.n.52706] 2.7 04:37:27 10° WNW 04:40:23 77° NNE 04:43:20 10° ESE
[s.n.52701] 2.7 04:37:34 10° WNW 04:40:29 78° NNE 04:43:27 10° ESE
[s.n.52704] 2.7 04:37:40 10° WNW 04:40:36 78° NNE 04:43:33 10° ESE
[s.n.52699] 2.7 04:37:47 10° WNW 04:40:42 78° NNE 04:43:40 10° ESE
[s.n.52702] 2.7 04:37:54 10° WNW 04:40:49 78° NNE 04:43:47 10° ESE
[s.n.52697] 2.7 04:38:01 10° WNW 04:40:57 78° NNE 04:43:54 10° ESE
[s.n.52700] 2.7 04:38:07 10° WNW 04:41:03 78° NNE 04:44:00 10° ESE
[s.n.52695] 2.7 04:38:15 10° WNW 04:41:10 78° NNE 04:44:07 10° ESE
[s.n.52698] 2.7 04:38:21 10° WNW 04:41:16 79° NNE 04:44:13 10° ESE
[s.n.52693] 2.7 04:38:27 10° WNW 04:41:24 79° NNE 04:44:21 10° ESE
[s.n.52696] 2.7 04:38:34 10° WNW 04:41:30 79° NNE 04:44:27 10° ESE
[s.n.52691] 2.7 04:38:41 10° WNW 04:41:37 79° NNE 04:44:34 10° ESE
[s.n.52689] 2.7 04:38:48 10° WNW 04:41:44 79° NNE 04:44:41 10° ESE
[s.n.52694] 2.7 04:38:54 10° WNW 04:41:50 79° NNE 04:44:48 10° ESE
[s.n.52692] 2.7 04:39:02 10° WNW 04:41:58 79° NNE 04:44:55 10° ESE
[s.n.52687] 2.7 04:39:08 10° WNW 04:42:04 80° NNE 04:45:01 10° ESE
[s.n.52685] 2.7 04:39:15 10° WNW 04:42:11 80° NNE 04:45:08 10° ESE
[s.n.52690] 2.7 04:39:22 10° WNW 04:42:17 80° NNE 04:45:15 10° ESE
[s.n.52688] 2.7 04:39:28 10° WNW 04:42:24 80° NNE 04:45:22 10° ESE
[s.n.52683] 2.7 04:39:35 10° WNW 04:42:31 80° NNE 04:45:29 10° ESE
[s.n.52686] 2.7 04:39:42 10° WNW 04:42:39 80° NNE 04:45:36 10° ESE
Cosmos 1980 Rocket 3.0 04:37:46 10° SSW 04:42:43 29° SE 04:47:36 10° ENE
[s.n.52681] 2.7 04:39:49 10° WNW 04:42:45 80° NNE 04:45:43 10° ESE
[s.n.52679] 2.7 04:39:56 10° WNW 04:42:52 81° NNE 04:45:50 10° ESE
[s.n.52684] 2.7 04:40:03 10° WNW 04:42:59 81° NNE 04:45:57 10° ESE
Cosmos 1812 4.5 04:41:05 10° SSE 04:43:06 14° ESE 04:45:06 10° E
[s.n.52682] 2.7 04:40:10 10° WNW 04:43:07 81° NNE 04:46:03 10° ESE
USA 215 3.3 04:36:35 10° ENE 04:43:12 75° SSE 04:49:48 10° WSW
[s.n.52677] 2.7 04:40:17 10° WNW 04:43:13 81° NNE 04:46:10 10° ESE
[s.n.52680] 2.7 04:40:24 10° WNW 04:43:21 81° NNE 04:46:18 10° ESE
[s.n.52675] 2.7 04:40:30 10° WNW 04:43:27 81° NNE 04:46:24 10° ESE
[s.n.52678] 2.7 04:40:37 10° WNW 04:43:34 81° NNE 04:46:32 10° ESE
[s.n.52673] 2.7 04:40:45 10° WNW 04:43:42 82° NNE 04:46:39 10° ESE
[s.n.52676] 2.7 04:40:51 10° WNW 04:43:48 82° NNE 04:46:46 10° ESE
[s.n.52671] 2.7 04:40:58 10° WNW 04:43:56 82° NNE 04:46:53 10° ESE
[s.n.52669] 2.7 04:41:05 10° WNW 04:44:02 82° NNE 04:47:00 10° ESE
Cosmos 1842 Rocket 4.2 04:39:49 10° S 04:44:03 37° ESE 04:48:10 10° NE
[s.n.52674] 2.7 04:41:13 10° WNW 04:44:10 82° NNE 04:47:07 10° ESE
[s.n.52672] 2.7 04:41:19 10° WNW 04:44:16 82° NNE 04:47:14 10° ESE
[s.n.52667] 2.7 04:41:26 10° WNW 04:44:23 83° NNE 04:47:21 10° ESE
[s.n.52665] 2.7 04:41:34 10° WNW 04:44:30 83° NNE 04:47:27 10° ESE
[s.n.52670] 2.7 04:41:41 10° WNW 04:44:37 83° NNE 04:47:34 10° ESE
[s.n.52668] 2.7 04:41:48 10° WNW 04:44:45 83° NNE 04:47:41 10° ESE
[s.n.52666] 2.7 04:41:55 10° WNW 04:44:52 83° NNE 04:47:48 10° ESE
[s.n.52663] 2.7 04:42:02 10° WNW 04:44:58 83° NNE 04:47:55 10° ESE
[s.n.52662] 2.7 04:42:09 10° WNW 04:45:06 83° NNE 04:48:02 10° ESE
[s.n.52664] 2.7 04:42:16 10° WNW 04:45:13 84° NNE 04:48:09 10° ESE
[s.n.52661] 2.7 04:42:23 10° WNW 04:45:20 84° NNE 04:48:16 10° ESE
[s.n.52660] 2.7 04:42:30 10° WNW 04:45:27 84° NNE 04:48:23 10° ESE
[s.n.52656] 2.7 04:42:37 10° WNW 04:45:34 84° NNE 04:48:29 10° ESE
[s.n.52658] 2.7 04:42:45 10° WNW 04:45:42 84° NNE 04:48:37 10° ESE
[s.n.52659] 2.7 04:42:52 10° WNW 04:45:48 84° NNE 04:48:43 10° ESE
[s.n.52657] 2.7 04:42:59 10° WNW 04:45:57 84° NNE 04:48:51 10° ESE
CZ-4B R/B 3.5 04:42:00 10° SSE 04:46:59 82° WSW 04:51:49 10° NNW
APEX 4.3 04:44:36 10° WNW 04:47:05 27° SW 04:49:50 10° SSE
SKYMED 2 3.6 04:43:53 10° NNE 04:48:16 79° ESE 04:52:43 10° SSW
Cosmos 2322 Rocket 4.0 04:46:24 10° S 04:49:00 13° SSE 04:51:34 10° SE
H-2A R/B 2.8 04:45:06 10° SSE 04:49:00 89° ENE 04:52:53 10° NNW
Cosmos 2369 4.3 04:45:39 10° SSW 04:50:58 36° SE 04:56:13 10° ENE
SJ 16-02 3.3 04:51:12 10° SSE 04:51:57 10° SE 04:52:43 10° SE
Cosmos 1110 Rocket 4.1 04:46:48 10° NNW 04:52:09 74° ENE 04:57:31 10° SSE
Landsat 4 4.3 04:48:51 10° S 04:52:39 61° WSW 04:56:25 10° NNW
SJ-12 4.0 04:49:21 10° SSE 04:53:35 71° ENE 04:57:44 10° N
Cosmos 1825 Rocket 3.8 04:49:19 10° NNW 04:53:44 79° W 04:58:15 10° S
Cosmos 1340 Rocket 3.7 04:51:05 10° NNE 04:54:40 31° E 04:58:19 10° SSE
USA 308 3.1 04:50:53 10° WSW 04:55:03 53° SSE 04:59:13 10° E
NOAA 11 4.3 04:49:43 10° SSE 04:55:13 63° ENE 05:00:39 10° N
Cosmos 2221 2.6 04:51:10 10° S 04:55:36 59° ESE 04:59:59 10° NNE
Cosmos 2082 Rocket 3.7 04:52:15 10° NE 04:55:50 17° E 04:59:05 11° ESE
Cosmos 1153 Rocket 4.5 04:50:54 10° S 04:57:11 67° ESE 05:03:20 10° NNE
Cosmos 1605 Rocket 4.2 04:52:24 10° SSW 04:58:49 80° W 05:05:05 10° N
Cosmos 1302 Rocket 4.5 04:57:07 10° N 05:02:02 42° ENE 05:07:01 10° SE
Cosmos 1697 Rocket 2.7 04:56:35 10° SSW 05:02:17 64° ESE 05:07:55 10° NE
YAOGAN 6 3.9 04:59:48 10° S 05:03:14 40° WSW 05:06:36 10° NW
H-2A R/B 4.0 05:04:51 11° SE 05:04:51 11° SE 05:06:00 10° SSE
Cosmos 1331 Rocket 4.0 05:00:15 10° NNW 05:05:30 85° ENE 05:10:48 10° SSE
Cosmos 2360 4.2 04:59:48 10° SSW 05:05:34 66° ESE 05:11:16 10° NE
Meteor 1-31 Rocket 2.9 05:06:14 10° SSE 05:10:12 57° E 05:14:06 10° N
CZ-2C R/B 2.9 05:06:27 10° SSE 05:11:19 89° ENE 05:16:13 10° NNW
Cosmos 1486 Rocket 4.5 05:07:49 10° SSW 05:12:55 41° ESE 05:17:58 10° NE
Cosmos 1939 Rocket 3.3 05:14:02 10° SSE 05:17:45 39° E 05:21:26 10° NNE
Lacrosse 5 2.8 05:13:26 10° WSW 05:18:11 35° S 05:21:34 17° ESE
USA 305 2.9 05:14:17 10° WSW 05:18:32 68° SSE 05:21:57 15° ENE
Cosmos 1933 3.5 05:14:41 10° S 05:18:41 49° ESE 05:22:39 10° NNE
Cosmos 2058 3.9 05:15:36 10° NNW 05:19:43 50° WSW 05:23:51 10° S
Cosmos 1782 3.2 05:17:28 10° S 05:21:19 40° ESE 05:25:05 10° NE
CZ-4B R/B 4.1 05:22:22 10° SSE 05:26:57 89° ENE 05:31:21 10° NNW
COSMOS 2406 3.6 05:22:38 10° N 05:27:58 42° ENE 05:32:11 16° SE
SL-16 R/B 3.4 05:24:38 10° S 05:29:06 23° SE 05:30:51 20° ESE
Cosmos 2173 Rocket 4.0 05:23:52 10° S 05:30:20 71° ESE 05:36:38 10° NNE
Lacrosse 5 rocket 2.6 05:28:11 10° WSW 05:31:46 27° S 05:33:30 20° SE
BREEZE M DEB (TANK) 3.8 05:30:35 10° N 05:32:03 16° NE 05:32:09 16° NE
Cosmos 2016 Rocket 4.2 05:26:00 10° S 05:32:05 50° ESE 05:38:09 10° NNE
CZ-4B R/B 3.5 05:33:55 26° ESE 05:34:48 29° E 05:38:09 10° NNE
SeaSat 1 4.2 05:30:37 10° SSE 05:34:49 28° SW 05:39:00 10° WNW
Cosmos 1607 3.9 05:29:35 10° NNW 05:35:52 83° NE 05:41:09 16° SE
COSMO-SKYMED 1 4.3 05:32:27 10° NNW 05:36:30 36° W 05:40:37 10° SSW
Cosmos 1727 Rocket 4.1 05:30:30 10° N 05:36:48 85° W 05:43:07 10° S
Lacrosse 4 Rocket 3.2 05:33:17 10° WNW 05:37:01 28° SW 05:40:52 10° SSE
Cosmos 2233 Rocket 4.5 05:33:57 10° S 05:39:45 36° ESE 05:45:30 10° NE
Cosmos 1503 Rocket 4.3 05:37:16 10° SSW 05:42:16 42° ESE 05:46:48 12° NE
Cosmos 1802 Rocket 4.0 05:37:03 10° S 05:43:33 70° E 05:50:00 10° NNE
Orbus 7S? 3.6 05:39:51 10° SW 05:44:09 37° SSE 05:44:48 33° SE
NOAA 12 4.0 05:40:03 10° SSE 05:45:27 73° ENE 05:50:46 10° N
Cosmos 1864 Rocket 4.5 05:39:25 10° S 05:45:33 58° ESE 05:51:38 10° NNE
Cosmos 968 Rocket 4.1 05:41:34 10° SSW 05:46:51 61° WNW 05:52:02 10° N
Meteor 2-3 Rocket 3.6 05:42:58 10° N 05:48:37 80° E 05:54:22 10° SSE
Cosmos 2278 3.9 05:44:34 10° SSW 05:50:10 51° SE 05:54:46 15° NE
ATLAS 2AS CENTAUR R/B 3.5 05:44:13 10° SW 05:51:05 57° WNW 05:58:23 10° NNE
Cosmos 1833 Rocket 2.7 05:45:42 10° NNW 05:51:23 87° WSW 05:56:14 15° SSE
H-2A R/B 2.1 05:48:40 15° SSE 05:52:43 47° E 05:57:29 10° N
Cosmos 2151 2.9 05:49:41 10° N 05:54:02 76° E 05:58:16 11° SSE
Cosmos 2360 Rocket 3.7 05:50:51 10° S 05:54:41 19° SE 05:54:41 19° SE
ADEOS 3.5 05:50:06 10° SSE 05:55:26 74° ENE 06:00:42 10° N
ERBS 3.2 05:53:40 10° SW 05:56:13 32° S 05:56:13 32° S
Cosmos 1459 Rocket 4.1 05:51:23 10° SSW 05:57:36 80° W 06:03:50 10° N
RESURS DK-1 2.3 05:53:51 10° SSW 05:58:04 67° ESE 06:00:20 26° NE
USA 306 2.9 05:56:20 10° WSW 06:00:35 80° NNW 06:02:19 35° NE
Cosmos 2100 Rocket 4.3 05:55:02 10° SSW 06:01:23 70° W 06:07:35 10° N
USA 307 2.8 05:59:54 10° WSW 06:04:10 84° NNW 06:05:36 41° ENE
CZ-2D R/B 3.3 06:06:28 54° E 06:06:29 54° E 06:10:16 10° N
Meteor 2-6 Rocket 4.2 06:02:10 10° S 06:07:50 60° ESE 06:13:17 10° NNE
Landsat 5 4.4 06:04:44 10° N 06:09:08 53° W 06:13:28 10° SSW
GEOS 3 Rocket 4.5 06:10:34 30° ENE 06:10:34 30° ENE 06:15:03 10° N
USA 281 3.3 06:05:45 20° SE 06:10:30 59° ENE 06:17:01 10° N
Aureole 1 Rocket 4.2 06:03:24 10° SSW 06:11:07 82° WNW 06:17:06 10° NNE
CZ-4C R/B 3.0 06:10:19 10° N 06:13:33 70° WNW 06:16:55 10° SSW
[s.n.52708] 4.1 06:12:10 10° WSW 06:14:19 33° SW 06:14:19 33° SW
[s.n.52707] 4.1 06:12:17 10° WSW 06:14:25 33° SW 06:14:25 33° SW
[s.n.52703] 4.1 06:12:24 10° WSW 06:14:32 33° SW 06:14:32 33° SW
[s.n.52705] 4.1 06:12:31 10° WSW 06:14:39 33° SW 06:14:39 33° SW
[s.n.52706] 4.1 06:12:38 10° WSW 06:14:45 33° SW 06:14:45 33° SW
[s.n.52701] 4.1 06:12:45 10° WSW 06:14:52 33° SW 06:14:52 33° SW
[s.n.52704] 4.2 06:12:51 10° WSW 06:14:58 33° SW 06:14:58 33° SW
[s.n.52699] 4.2 06:12:58 10° WSW 06:15:05 33° SW 06:15:05 33° SW
[s.n.52702] 4.2 06:13:04 10° WSW 06:15:11 33° SW 06:15:11 33° SW
[s.n.52697] 4.2 06:13:11 10° WSW 06:15:18 33° SW 06:15:18 33° SW
[s.n.52700] 4.2 06:13:18 10° WSW 06:15:24 33° SW 06:15:24 33° SW
[s.n.52695] 4.2 06:13:25 10° WSW 06:15:31 33° SW 06:15:31 33° SW
[s.n.52698] 4.2 06:13:32 10° WSW 06:15:38 32° SW 06:15:38 32° SW
[s.n.52693] 4.2 06:13:39 10° WSW 06:15:45 32° SW 06:15:45 32° SW
Cosmos 1151 Rocket 3.7 06:12:08 10° S 06:15:18 40° SSE 06:15:18 40° SSE
[s.n.52696] 4.2 06:13:46 10° WSW 06:15:51 32° SW 06:15:51 32° SW
[s.n.52691] 4.2 06:13:52 10° WSW 06:15:58 32° SW 06:15:58 32° SW
[s.n.52689] 4.2 06:14:00 10° WSW 06:16:04 32° SW 06:16:04 32° SW
[s.n.52694] 4.2 06:14:06 10° WSW 06:16:11 32° SW 06:16:11 32° SW
[s.n.52692] 4.2 06:14:13 10° WSW 06:16:18 32° SW 06:16:18 32° SW
[s.n.52687] 4.2 06:14:20 10° WSW 06:16:24 32° SW 06:16:24 32° SW
[s.n.52685] 4.2 06:14:27 10° WSW 06:16:31 32° SW 06:16:31 32° SW
[s.n.52690] 4.2 06:14:34 10° WSW 06:16:37 32° SW 06:16:37 32° SW
[s.n.52688] 4.2 06:14:40 10° WSW 06:16:44 32° SW 06:16:44 32° SW
[s.n.52683] 4.2 06:14:47 10° WSW 06:16:51 32° SW 06:16:51 32° SW
[s.n.52686] 4.3 06:14:55 10° WSW 06:16:58 32° SW 06:16:58 32° SW
[s.n.52681] 4.3 06:15:02 10° WSW 06:17:05 32° SW 06:17:05 32° SW
[s.n.52679] 4.3 06:15:09 10° WSW 06:17:11 31° SW 06:17:11 31° SW
[s.n.52684] 4.3 06:15:16 10° WSW 06:17:18 31° SW 06:17:18 31° SW
[s.n.52682] 4.3 06:15:23 10° WSW 06:17:24 31° SW 06:17:24 31° SW
[s.n.52677] 4.3 06:15:30 10° WSW 06:17:31 31° SW 06:17:31 31° SW
[s.n.52680] 4.3 06:15:37 10° WSW 06:17:38 31° SW 06:17:38 31° SW
[s.n.52675] 4.3 06:15:44 10° WSW 06:17:45 31° SW 06:17:45 31° SW
[s.n.52678] 4.3 06:15:51 10° WSW 06:17:52 31° SW 06:17:52 31° SW
[s.n.52673] 4.3 06:15:59 10° WSW 06:17:59 31° SW 06:17:59 31° SW
[s.n.52676] 4.3 06:16:05 10° WSW 06:18:06 31° SW 06:18:06 31° SW
[s.n.52671] 4.3 06:16:12 10° WSW 06:18:13 31° SW 06:18:13 31° SW
[s.n.52669] 4.3 06:16:20 10° WSW 06:18:19 31° SW 06:18:19 31° SW
Cosmos 1812 3.1 06:15:21 10° SSW 06:19:13 63° W 06:23:02 10° N
[s.n.52674] 4.3 06:16:27 10° WSW 06:18:26 31° SW 06:18:26 31° SW
[s.n.52672] 4.3 06:16:33 10° WSW 06:18:33 31° SW 06:18:33 31° SW
[s.n.52667] 4.3 06:16:41 10° WSW 06:18:40 31° SW 06:18:40 31° SW
[s.n.52665] 4.3 06:16:48 10° WSW 06:18:47 31° SW 06:18:47 31° SW
[s.n.52670] 4.4 06:16:55 10° WSW 06:18:54 30° SW 06:18:54 30° SW
[s.n.52668] 4.4 06:17:03 10° WSW 06:19:01 30° SW 06:19:01 30° SW
[s.n.52666] 4.4 06:17:10 10° WSW 06:19:08 30° SW 06:19:08 30° SW
[s.n.52663] 4.4 06:17:17 10° WSW 06:19:15 30° SW 06:19:15 30° SW
[s.n.52662] 4.4 06:17:24 10° WSW 06:19:21 30° SW 06:19:21 30° SW
[s.n.52664] 4.4 06:17:32 10° WSW 06:19:29 30° SW 06:19:29 30° SW
[s.n.52661] 4.4 06:17:39 10° WSW 06:19:36 30° SW 06:19:36 30° SW
[s.n.52660] 4.4 06:17:46 10° WSW 06:19:43 30° SW 06:19:43 30° SW
[s.n.52656] 4.4 06:17:53 10° WSW 06:19:49 30° SW 06:19:49 30° SW
[s.n.52658] 4.4 06:18:00 10° WSW 06:19:57 30° SW 06:19:57 30° SW
[s.n.52659] 4.4 06:18:07 10° WSW 06:20:03 30° SW 06:20:03 30° SW
[s.n.52657] 4.4 06:18:15 10° WSW 06:20:11 30° SW 06:20:11 30° SW
Cosmos 2061 Rocket 4.0 06:14:47 10° S 06:21:18 88° WNW 06:27:39 10° N
Meteor PRIRODA 4.0 06:22:10 37° S 06:23:26 63° WSW 06:27:07 10° NNW
Cosmos 1862 4.3 06:21:03 10° N 06:23:27 35° NNE 06:23:27 35° NNE
USA 215 4.2 06:20:11 10° NNE 06:26:27 46° NW 06:32:47 10° WSW
Cosmos 1980 Rocket 2.6 06:21:32 10° SW 06:27:07 62° WNW 06:32:39 10° NNE
ARGOS 3.2 06:27:22 53° E 06:27:44 54° E 06:33:01 10° N
NOAA 6 3.9 06:27:40 36° SSE 06:29:51 75° ENE 06:35:00 10° N
SJ 16-02 2.3 06:27:08 10° SSW 06:29:55 35° S 06:29:55 35° S
Cosmos 2123 Rocket 4.1 06:25:34 10° NNW 06:31:57 81° W 06:38:24 10° S
Cosmos 1725 Rocket 4.2 06:26:47 10° SSW 06:33:04 72° W 06:39:20 10° N
USA 308 3.2 06:30:35 10° WSW 06:34:46 57° NW 06:35:04 56° NNW
Cosmos 2322 Rocket 2.9 06:29:20 10° SSW 06:33:46 37° SSE 06:33:46 37° SSE
SMAP 3.3 06:31:55 23° S 06:34:50 71° WSW 06:39:31 10° NNW
Cosmos 2333 Rocket 3.9 06:32:32 10° SSW 06:35:14 19° SSE 06:35:14 19° SSE
Cosmos 2082 Rocket 2.1 06:33:30 10° NNW 06:39:09 85° WSW 06:40:57 46° SSE
H-2A R/B 3.5 06:41:54 28° S 06:41:54 28° S 06:44:06 10° S
AQUARIUS 4.4 06:41:53 42° S 06:43:19 68° WSW 06:47:50 10° NNW
Cosmos 1777 Rocket 4.1 06:43:55 10° SSW 06:48:25 62° S 06:48:25 62° S
Cosmos 1354 Rocket 4.1 06:43:59 10° SSW 06:49:17 75° WNW 06:50:58 44° N
Radarsat Rocket 4.4 06:51:27 17° SSE 06:57:13 82° ENE 07:05:15 10° NNW
Cosmos 967 Rocket 4.3 06:51:01 10° NNW 06:57:16 80° NE 06:57:32 78° E
USA 305 4.2 06:54:04 10° WSW 06:57:42 35° NW 06:57:42 35° NW
Cosmos 2219 Rocket 4.1 06:54:43 10° SSW 06:56:35 17° S 06:56:35 17° S
IRAS Rocket 4.2 07:02:25 74° S 07:02:25 74° S 07:07:33 10° SSW
Lacrosse 5 2.6 06:56:53 10° SW 07:00:46 45° SSW 07:00:46 45° SSW
Lacrosse 5 rocket 3.6 07:07:44 10° SW 07:09:02 19° SW 07:09:02 19° SW
COSMOS 2406 4.3 07:06:59 10° WNW 07:12:20 40° SW 07:14:16 31° S
SL-16 R/B 2.6 07:08:15 10° SSW 07:12:45 57° SSW 07:12:45 57° SSW
H-2A R/B 3.8 07:29:17 18° SSW 07:31:55 27° WSW 07:36:03 10° WNW
Cosmos 2360 Rocket 3.9 07:34:11 10° SSW 07:36:27 25° SSW 07:36:27 25° SSW
USA 281 4.4 07:52:38 31° SSW 07:54:45 38° SW 08:00:47 10° WNW
SJ 16-02 4.5 08:06:38 10° SW 08:06:54 11° SW 08:06:54 11° SW
Cosmos 2322 Rocket 4.3 08:13:29 10° SW 08:15:37 22° SW 08:15:37 22° SW
Cosmos 2082 Rocket 4.4 08:19:51 10° W 08:22:50 20° WSW 08:22:50 20° WSW
